Location: Bjelajci
(45.0103°N, 16.1758°E)
Time: 09:12:22
(UTC+00:00)

Meteor 1-28 Rocket - Pass Details

Date: 14 July 2020
Orbit: 505 x 522 km, 97.3° (Epoch: 07 August)

Event Time Altitude Azimuth Distance (km) Brightness Sun altitude
Exits shadow 02:31:16 - 201° (SSW) 1,893 5.5 -8.0°
Reaches altitude 10° 02:31:45 10° 204° (SSW) 1,717 5.3 -8.0°
Maximum altitude 02:34:57 27° 264° (W) 994 4.2 -7.5°
Drops below altitude 10° 02:38:12 10° 325° (NW) 1,737 5.9 -7.1°
Sets 02:40:32 0° 337° (NNW) 2,632 7.0 -6.8°
